User: anonymous   Login
Location: Nians�bougou
(13.2321°N, 4.9818°W)
Time: 18:04:33
(UTC+00:00)
Language:

Fermi - Orbit

View from above orbital plane
View from above orbital plane
View from above satellite
View from above satellite

Ground track
Ground track

The orbit data is extracted from the following two-line orbital elements,

1 33053U 08029A   20151.61485539 +.00000433 +00000-0 +79018-5 0  9993
2 33053 025.5819 221.8561 0012375 159.4724 200.6310 15.11340486660615
Epoch (UTC): 30 May 2020 14:45:23
Eccentricity: 0.0012375
inclination: 25.5819°
perigee height: 523 km
apogee height: 540 km
right ascension of ascending node: 221.8561°
argument of perigee: 159.4724°
revolutions per day: 15.11340486
mean anomaly at epoch: 200.6310°
orbit number at epoch: 66061

The dashed part of the orbit path shows where the satellite is in the earth's shadow,  

DLR